Wind_Speed
4 4 2 2 2 2 7 8 9 7 8 10 13 14 15 15 15 16 17 18 19 20 20 22 22 23 25 27 29 33 33 34 34 30 28 27 26 25 26 28 30 32 34
8 9 7 8 5 5 4 6 8 9 7 9 11 13 16 18 20 20 21 23 23 23 25 26 27 28 31 33 36 37 35 31 28 26 25 25 26 27 30 32 34 36 37
9 12 8 7 10 9 9 8 8 9 10 10 10 12 13 15 17 19 21 24 26 28 30 32 33 34 34 34 33 33 30 30 29 27 27 28 29 31 34 36 40 40 41
16 14 12 9 12 12 14 13 13 12 12 11 13 15 15 16 17 19 22 25 27 26 27 27 27 27 28 30 31 29 31 31 32 32 33 33 35 38 39 42 44 45 47
21 20 25 22 19 20 20 19 18 16 16 17 18 19 20 21 22 25 30 32 30 31 35 37 35 33 33 32 32 33 33 33 35 37 39 42 44 45 46 47 48 49 50
26 26 27 28 27 27 25 25 26 25 25 26 25 26 27 28 32 34 35 35 34 33 36 39 40 40 35 35 36 37 38 39 41 43 44 45 46 48 50 51 53 52 51
29 29 29 31 33 30 30 31 30 33 33 31 31 32 32 33 36 38 41 41 39 39 41 42 44 44 46 46 44 44 44 48 47 48 47 49 50 53 53 54 53 52 50
28 30 30 31 32 35 37 35 35 37 40 40 38 37 36 39 41 43 43 41 42 42 42 44 47 49 48 49 52 53 52 52 53 53 53 53 53 53 53 52 50 49 49
30 31 32 32 34 36 35 36 37 37 40 40 41 40 41 45 47 47 47 46 44 45 45 46 47 51 50 53 54 57 58 57 58 58 58 55 55 54 50 47 44 44 44
37 33 35 37 41 40 38 34 36 38 37 38 40 43 49 49 49 49 49 48 46 46 45 45 45 48 49 52 55 56 58 58 58 56 53 52 51 50 47 43 35 34 34
41 41 42 40 40 37 39 40 37 40 45 44 44 46 44 45 47 48 49 48 47 47 47 48 48 48 51 50 53 53 54 53 52 51 50 48 46 44 42 39 34 31 30
42 43 43 43 45 41 42 46 40 41 41 44 45 42 44 45 47 48 49 49 49 49 49 51 50 49 50 51 52 52 51 50 50 49 50 49 47 44 42 38 35 36 30
49 48 45 44 40 42 43 45 47 45 46 45 49 48 47 46 50 50 50 50 49 49 50 50 49 49 49 49 48 49 49 48 46 48 46 44 43 43 40 38 37 35 24
42 46 47 46 47 46 47 50 53 54 52 53 54 55 50 48 48 49 50 51 51 50 51 50 50 50 50 48 48 48 49 48 46 48 45 43 41 38 36 33 32 29 23
53 52 50 50 51 50 49 52 54 53 51 53 55 54 50 48 47 47 49 51 52 53 54 53 54 54 54 53 51 51 52 51 49 46 44 40 36 34 34 28 29 30 28
52 56 54 52 51 50 52 51 54 59 55 50 50 49 49 49 48 47 49 47 48 50 50 49 51 56 57 56 55 53 53 49 46 43 40 39 38 35 36 34 28 27 33
46 47 50 51 52 51 50 50 48 47 49 52 52 51 47 47 47 44 41 41 43 43 43 41 42 47 48 48 47 48 49 47 47 46 44 45 41 39 38 37 33 29 33
47 49 50 51 49 49 51 48 46 47 51 54 53 49 43 39 38 39 37 39 36 42 45 43 41 39 48 48 48 46 45 45 43 44 43 44 43 42 41 41 39 41 38
48 49 49 49 48 48 48 48 45 45 49 50 43 41 39 34 32 33 38 38 38 40 41 41 45 45 46 37 37 38 37 39 42 41 40 40 43 41 42 42 39 35 30
45 46 46 46 47 45 43 43 42 41 39 37 41 41 42 41 38 33 36 38 41 35 38 40 42 44 40 41 40 37 36 34 36 39 41 41 42 46 48 43 40 30 36
42 42 42 42 42 41 38 38 37 33 35 38 39 39 40 40 37 34 40 44 42 47 48 44 35 43 46 45 45 44 41 42 38 37 38 42 45 47 48 48 43 37 37
41 41 40 40 40 40 38 38 39 41 40 39 38 38 38 41 41 42 43 45 47 50 50 46 44 50 51 48 47 48 49 45 43 45 43 40 44 49 48 47 47 42 45
43 44 44 43 42 43 42 41 41 41 42 43 43 44 45 46 44 46 47 48 49 49 51 52 53 55 56 57 55 53 51 51 49 54 53 48 46 45 49 49 48 45 45
45 46 47 47 46 47 46 46 46 47 46 48 48 49 49 50 52 52 53 54 55 55 58 58 60 61 61 62 64 64 61 61 62 60 64 57 56 54 49 51 50 46 47
48 46 48 49 49 49 49 50 49 50 51 52 53 53 55 55 55 56 57 59 59 60 63 65 66 66 67 68 68 68 68 67 66 65 67 67 62 59 56 54 54 52 54
52 50 50 51 52 52 53 53 52 55 56 57 57 59 60 60 58 57 57 60 62 64 65 65 67 68 68 68 68 66 65 66 65 62 62 65 64 63 64 56 58 55 57
Wind_Direction
242 225 245 215 130 3 341 354 354 314 265 236 221 225 236 248 257 263 268 272 276 277 275 275 276 278 280 281 283 290 294 298 302 303 301 298 296 297 293 296 303 302 300
245 250 231 236 216 220 257 302 324 330 327 277 263 258 258 261 265 268 271 273 275 277 276 275 276 278 283 284 286 290 295 298 302 305 309 303 299 300 300 299 299 298 300
250 269 230 235 238 240 251 262 272 294 303 302 303 298 293 291 292 292 291 289 282 277 276 278 282 285 286 286 291 294 295 298 299 298 301 300 297 295 296 297 299 303 306
253 265 233 272 265 265 260 257 258 277 287 298 304 309 304 301 308 310 312 308 302 293 289 289 290 290 292 293 293 298 300 294 295 295 299 302 300 303 304 303 303 303 303
249 251 248 264 264 269 263 266 265 264 277 282 290 296 294 294 297 302 305 307 299 293 291 291 285 282 283 286 286 288 292 292 293 294 298 298 298 300 301 300 301 301 300
251 255 260 269 274 276 267 269 265 264 274 278 277 284 288 292 296 300 304 304 297 292 292 291 285 283 279 285 285 286 290 293 293 292 294 295 296 296 297 297 299 299 296
259 260 263 267 272 280 282 284 278 275 277 280 281 284 286 288 294 298 301 299 298 294 294 292 289 286 282 282 282 286 289 293 291 292 292 291 293 295 296 296 298 299 298
263 265 271 274 275 279 281 285 285 277 276 278 280 283 290 295 295 295 294 295 296 294 290 288 284 282 280 284 282 285 289 289 290 289 289 290 290 291 292 293 297 298 297
257 266 270 277 277 280 282 280 282 282 278 274 278 285 293 294 293 293 293 292 293 293 291 288 284 282 281 281 282 284 285 286 287 289 289 290 288 288 291 293 297 300 300
272 274 274 279 281 280 278 277 281 286 279 281 282 287 295 297 294 291 293 292 292 293 292 290 288 287 286 284 284 284 287 288 290 291 290 291 291 292 293 292 296 303 305
272 275 279 278 276 277 275 276 281 288 291 294 293 293 294 294 292 292 291 290 290 290 290 288 288 287 286 286 285 286 287 288 289 290 290 289 288 288 291 292 288 293 294
265 268 270 272 275 271 270 277 283 289 292 295 293 292 292 293 294 292 292 289 288 287 286 286 286 285 283 284 284 285 287 287 287 288 288 287 286 287 287 287 287 287 291
261 263 265 266 270 277 278 273 279 286 288 293 292 294 291 291 293 291 288 287 287 287 287 287 286 285 284 282 282 284 284 286 287 284 285 287 284 285 285 283 283 285 291
259 262 263 262 276 280 278 276 283 283 285 284 287 293 294 292 290 289 289 289 289 290 289 289 288 287 285 283 284 285 287 286 286 285 286 285 286 285 281 276 276 273 278
262 267 270 276 281 282 281 281 280 280 281 287 289 291 291 289 290 291 292 293 293 292 292 291 288 286 283 282 281 282 283 284 283 282 282 284 283 278 276 266 261 273 276
268 269 273 277 278 277 278 275 272 279 288 292 292 291 291 294 295 294 293 292 293 291 289 292 291 289 285 283 282 282 281 280 278 278 279 275 275 273 271 261 265 265 276
274 274 275 276 275 275 276 277 279 283 286 286 287 290 293 294 293 293 288 289 290 293 292 294 300 300 300 294 288 285 281 279 274 271 269 271 270 269 270 259 254 259 286
274 275 274 274 277 280 281 282 285 287 288 287 288 288 288 284 283 279 278 286 291 296 300 302 303 303 307 303 301 297 291 283 275 272 269 268 269 266 268 261 257 260 273
269 272 275 277 279 280 285 286 287 289 290 289 290 292 291 286 282 279 277 277 286 288 290 295 304 305 303 300 297 296 297 294 285 277 270 268 265 264 260 256 262 264 257
271 275 279 280 281 282 283 286 288 291 290 290 295 296 295 292 287 283 276 279 275 275 284 291 309 305 292 295 300 300 297 291 287 279 270 265 266 264 263 257 252 257 250
273 277 282 284 285 285 285 284 284 276 284 290 290 291 290 286 285 281 268 271 272 274 275 282 275 284 290 294 292 291 292 292 292 288 279 269 265 264 262 260 252 252 246
276 277 280 283 284 284 283 281 279 279 281 284 284 284 282 280 279 279 273 273 275 278 283 282 275 276 278 283 284 285 285 284 287 289 285 278 269 261 260 260 257 253 246
277 278 278 278 276 277 277 277 278 278 282 284 283 281 282 283 282 280 280 278 280 276 275 276 275 276 277 277 280 279 279 274 283 286 283 282 278 273 262 257 261 253 251
277 278 280 280 281 281 281 281 283 284 283 284 284 284 284 284 284 282 281 281 283 281 282 281 280 282 282 281 280 279 274 272 275 277 280 279 279 278 271 264 258 249 251
281 281 281 282 283 282 282 282 283 283 283 282 283 284 284 283 281 281 281 282 281 281 281 284 284 284 284 284 283 283 282 279 275 273 275 276 273 273 271 266 260 249 249
286 287 286 286 285 283 283 282 282 282 283 284 285 285 285 285 285 283 282 282 283 284 284 283 284 284 283 283 283 282 281 280 277 274 272 271 270 268 268 268 265 258 248
Height
10976 10976 10976 10976 10976 10976 10976 10974 10973 10972 10971 10970 10970 10971 10972 10973 10973 10973 10974 10974 10974 10973 10972 10971 10971 10970 10970 10969 10968 10966 10966 10964 10962 10960 10958 10956 10955 10953 10951 10950 10948 10946 10944
10974 10975 10975 10976 10975 10975 10975 10974 10973 10971 10970 10970 10970 10971 10971 10971 10971 10972 10973 10973 10972 10971 10971 10970 10968 10968 10967 10966 10964 10962 10962 10959 10958 10956 10954 10953 10951 10950 10948 10946 10943 10941 10939
10973 10973 10973 10973 10974 10974 10973 10973 10972 10971 10970 10969 10969 10970 10970 10970 10971 10972 10972 10972 10971 10970 10968 10967 10965 10963 10962 10961 10960 10957 10957 10955 10953 10951 10950 10949 10947 10945 10943 10941 10939 10936 10933
10971 10971 10971 10971 10972 10972 10972 10971 10970 10969 10969 10969 10969 10969 10969 10969 10970 10970 10971 10970 10969 10966 10964 10962 10960 10958 10956 10955 10955 10953 10951 10950 10949 10948 10947 10945 10943 10941 10939 10936 10934 10930 10926
10966 10967 10968 10967 10969 10969 10969 10968 10968 10967 10967 10966 10967 10967 10967 10966 10966 10966 10966 10965 10964 10962 10960 10958 10956 10953 10951 10950 10949 10948 10947 10946 10945 10943 10942 10940 10938 10936 10933 10930 10927 10923 10920
10964 10964 10965 10965 10965 10966 10966 10965 10964 10964 10963 10963 10963 10962 10961 10961 10960 10960 10960 10959 10957 10955 10953 10951 10949 10948 10945 10943 10942 10943 10942 10941 10939 10937 10935 10932 10929 10927 10925 10922 10920 10917 10913
10962 10961 10962 10962 10962 10962 10962 10961 10961 10960 10959 10959 10958 10956 10955 10954 10953 10953 10952 10951 10950 10948 10947 10944 10941 10940 10938 10937 10935 10936 10936 10933 10930 10929 10926 10923 10921 10920 10918 10915 10912 10909 10906
10956 10957 10957 10957 10957 10957 10956 10955 10954 10954 10953 10953 10952 10950 10949 10948 10947 10946 10945 10943 10942 10941 10939 10936 10932 10929 10931 10929 10927 10925 10927 10924 10921 10919 10916 10914 10913 10911 10908 10906 10903 10901 10898
10951 10951 10951 10951 10950 10951 10950 10949 10948 10947 10947 10947 10945 10944 10943 10942 10940 10937 10936 10933 10931 10931 10930 10926 10924 10921 10922 10920 10918 10915 10915 10914 10911 10910 10908 10906 10904 10901 10899 10896 10896 10893 10891
10944 10944 10943 10944 10944 10944 10943 10942 10942 10941 10941 10940 10939 10937 10935 10932 10930 10928 10925 10923 10921 10920 10919 10917 10916 10914 10913 10912 10907 10907 10904 10905 10903 10902 10900 10897 10895 10893 10891 10889 10887 10886 10884
10937 10937 10936 10937 10937 10936 10936 10935 10935 10934 10933 10931 10930 10929 10927 10924 10921 10918 10915 10914 10911 10911 10910 10906 10907 10906 10902 10903 10898 10896 10895 10894 10894 10892 10890 10887 10884 10883 10882 10881 10880 10878 10875
10930 10930 10931 10932 10931 10930 10930 10930 10928 10927 10925 10924 10923 10921 10918 10915 10912 10910 10907 10904 10901 10900 10899 10897 10897 10897 10894 10892 10889 10887 10886 10885 10885 10882 10877 10876 10876 10876 10874 10873 10872 10871 10868
10923 10924 10925 10924 10924 10923 10923 10922 10921 10919 10917 10916 10915 10913 10910 10907 10904 10901 10897 10893 10890 10889 10888 10887 10886 10886 10883 10881 10880 10875 10876 10876 10874 10868 10868 10867 10867 10868 10868 10867 10866 10866 10864
10917 10914 10915 10916 10916 10914 10915 10913 10912 10911 10909 10907 10905 10902 10901 10898 10895 10891 10886 10883 10880 10880 10877 10877 10876 10874 10872 10871 10870 10868 10866 10866 10866 10860 10860 10859 10860 10859 10860 10860 10858 10857 10856
10910 10907 10907 10906 10906 10906 10906 10904 10902 10900 10901 10899 10896 10894 10890 10888 10886 10884 10878 10873 10869 10867 10866 10866 10865 10862 10860 10859 10858 10859 10855 10855 10854 10852 10852 10850 10851 10852 10852 10851 10850 10849 10847
10901 10898 10899 10901 10898 10897 10898 10896 10894 10891 10891 10888 10885 10883 10880 10877 10874 10872 10868 10864 10861 10858 10855 10855 10853 10848 10846 10847 10846 10845 10844 10845 10842 10842 10842 10841 10843 10844 10844 10844 10844 10840 10839
10890 10890 10889 10890 10891 10889 10889 10887 10884 10882 10882 10880 10877 10873 10872 10867 10862 10861 10857 10854 10850 10847 10845 10844 10842 10838 10835 10834 10835 10833 10832 10834 10833 10831 10833 10832 10833 10836 10836 10837 10835 10832 10831
10882 10881 10881 10881 10880 10878 10877 10878 10877 10875 10872 10868 10865 10862 10864 10861 10857 10850 10846 10843 10842 10837 10837 10835 10833 10829 10827 10824 10822 10820 10819 10821 10824 10821 10821 10821 10823 10825 10827 10827 10827 10826 10824
10877 10875 10874 10872 10871 10871 10866 10865 10867 10864 10858 10854 10851 10851 10848 10850 10849 10846 10841 10837 10836 10835 10832 10830 10826 10825 10821 10818 10815 10813 10812 10810 10809 10811 10811 10812 10812 10815 10816 10818 10819 10818 10817
10869 10867 10865 10864 10863 10863 10861 10857 10856 10855 10849 10844 10841 10839 10836 10834 10837 10837 10835 10831 10830 10829 10826 10826 10822 10819 10817 10812 10809 10807 10806 10805 10803 10802 10803 10803 10804 10804 10805 10810 10812 10811 10811
10862 10861 10857 10855 10854 10853 10854 10852 10852 10851 10846 10841 10838 10834 10831 10827 10827 10830 10825 10822 10820 10820 10819 10819 10817 10814 10808 10804 10801 10799 10798 10796 10796 10795 10794 10794 10794 10793 10794 10799 10803 10805 10802
10854 10853 10852 10850 10848 10846 10846 10844 10844 10840 10839 10838 10833 10831 10827 10825 10820 10818 10816 10814 10811 10810 10807 10807 10807 10803 10800 10797 10794 10791 10788 10786 10786 10784 10784 10786 10785 10783 10786 10789 10793 10795 10796
10846 10844 10844 10843 10841 10840 10838 10836 10834 10831 10828 10825 10824 10823 10820 10815 10813 10810 10807 10805 10803 10801 10798 10796 10795 10791 10789 10785 10782 10780 10780 10777 10777 10770 10771 10776 10774 10773 10775 10777 10782 10784 10784
10833 10832 10830 10831 10830 10828 10824 10822 10821 10819 10817 10815 10813 10810 10808 10805 10802 10799 10796 10793 10791 10790 10787 10784 10781 10778 10775 10771 10766 10765 10768 10768 10768 10765 10753 10761 10763 10762 10763 10765 10770 10771 10773
10818 10820 10816 10815 10814 10813 10812 10809 10808 10806 10804 10803 10801 10799 10796 10793 10791 10788 10784 10780 10777 10775 10772 10770 10767 10765 10761 10757 10753 10749 10748 10749 10751 10753 10745 10742 10748 10748 10750 10753 10755 10759 10761
10802 10804 10804 10802 10799 10799 10799 10800 10798 10794 10791 10789 10788 10786 10783 10781 10778 10775 10771 10767 10763 10761 10757 10755 10752 10749 10746 10743 10739 10736 10733 10729 10730 10734 10734 10729 10730 10734 10734 10740 10741 10744 10746